POERUNWV Weather Reports


Display with metric or nautical units.
time (UTC)temp
F
wind
direction
speed
MPH
gust
MPH
rain 1hr
in
rain 24hr
in
rain mn
in
humidity
%
barometer
mb
20260510054536 54 62 2.0 9.0 0.00 0.00 0.00 76 1013.2
20260510053038 54 133 2.0 8.0 0.00 0.00 0.00 76 1013.4
20260510051536 54 53 2.0 7.0 0.00 0.00 0.00 75 1013.4
20260510050035 54 74 2.0 7.0 0.00 0.00 0.00 75 1013.5
20260510044534 54 74 2.0 7.0 0.00 0.00 0.00 74 1013.4
20260510043039 54 92 2.0 6.0 0.00 0.00 0.00 73 1013.2
20260510041534 54 63 2.0 5.0 0.00 0.00 0.00 72 1012.8
20260510040034 54 97 2.0 6.0 0.00 0.00 0.00 71 1012.9
20260510034542 55 101 2.0 7.0 0.00 0.00 0.00 70 1013.0
20260510033035 55 94 2.0 7.0 0.00 0.00 0.00 70 1012.7
20260510031535 55 140 2.0 7.0 0.00 0.00 0.00 69 1012.5
20260510030037 56 68 1.0 4.0 0.00 0.00 0.00 68 1012.5
20260510024538 56 84 2.0 4.0 0.00 0.00 0.00 68 1012.7
20260510023036 57 79 2.0 6.0 0.00 0.00 0.00 67 1012.5
20260510021535 57 58 2.0 5.0 0.00 0.00 0.00 66 1012.4
20260510020038 57 82 0.0 4.0 0.00 0.00 0.00 65 1012.4
20260510014541 58 0 1.0 5.0 0.00 0.00 0.00 64 1012.2
20260510013033 58 66 1.0 5.0 0.00 0.00 0.00 63 1012.0
20260510011541 58 41 1.0 5.0 0.00 0.00 0.00 63 1011.7
20260510010036 58 146 0.0 4.0 0.00 0.00 0.00 63 1011.4
20260510004537 58 74 1.0 4.0 0.00 0.00 0.00 63 1010.9
20260510003031 59 45 1.0 5.0 0.00 0.00 0.00 62 1010.7
20260510001537 59 117 1.0 4.0 0.00 0.00 0.00 62 1010.7
20260510000056 59 32 2.0 6.0 0.00 0.00 0.00 61 1010.7
20260509234548 60 99 1.0 4.0 0.00 0.00 0.00 60 1010.6
20260509233035 60 0 1.0 6.0 0.00 0.00 0.00 59 1010.4
20260509231532 60 166 0.0 3.0 0.00 0.00 0.00 60 1010.4
20260509230037 61 203 1.0 9.0 0.00 0.00 0.00 59 1010.7
20260509224535 61 177 3.0 8.0 0.00 0.00 0.00 57 1010.6
20260509223036 62 29 1.0 8.0 0.00 0.00 0.00 57 1010.7
20260509221535 62 269 2.0 8.0 0.00 0.00 0.00 57 1010.8
20260509220036 62 143 1.0 4.0 0.00 0.00 0.00 59 1010.9
20260509214536 62 344 0.0 5.0 0.00 0.00 0.00 61 1010.8
20260509213040 62 314 0.0 4.0 0.00 0.00 0.00 57 1010.8
20260509211539 63 3 0.0 3.0 0.00 0.00 0.00 58 1010.4
20260509210042 63 35 2.0 14.0 0.00 0.00 0.00 53 1010.2
20260509204541 62 307 0.0 6.0 0.00 0.00 0.00 56 1010.3
20260509203036 62 313 1.0 3.0 0.00 0.00 0.00 55 1010.2
20260509201538 62 316 3.0 8.0 0.00 0.00 0.00 54 1010.2
20260509200041 63 324 2.0 6.0 0.00 0.00 0.00 51 1010.0
20260509194538 63 0 1.0 8.0 0.00 0.00 0.00 52 1010.2
20260509193036 64 22 3.0 6.0 0.00 0.00 0.00 50 1010.2
20260509191536 63 307 1.0 6.0 0.00 0.00 0.00 50 1010.3
20260509190036 63 27 3.0 11.0 0.00 0.00 0.00 47 1010.2
20260509184553 63 182 1.0 13.0 0.00 0.00 0.00 50 1010.2
20260509183035 63 2 2.0 10.0 0.00 0.00 0.00 52 1010.1
20260509181539 62 151 3.0 11.0 0.00 0.00 0.00 54 1010.1
20260509180035 62 0 1.0 9.0 0.00 0.00 0.00 54 1010.2
20260509174537 61 145 5.0 13.0 0.00 0.00 0.00 54 1010.2
20260509173038 62 141 5.0 18.0 0.00 0.00 0.00 54 1010.4
20260509171537 61 116 4.0 13.0 0.00 0.00 0.00 53 1010.6
20260509170038 60 162 3.0 10.0 0.00 0.00 0.00 56 1010.7
20260509164534 58 99 1.0 8.0 0.00 0.00 0.00 59 1010.8
20260509163035 58 83 2.0 7.0 0.00 0.00 0.00 57 1010.8
20260509161533 57 0 1.0 4.0 0.00 0.00 0.00 58 1010.9
20260509160040 56 167 0.0 4.0 0.00 0.00 0.00 60 1010.8
20260509154535 56 0 1.0 4.0 0.00 0.00 0.00 60 1010.9
20260509153043 56 354 2.0 4.0 0.00 0.00 0.00 60 1011.3
20260509151536 56 313 0.0 3.0 0.00 0.00 0.00 59 1011.3
20260509150040 56 357 1.0 3.0 0.00 0.00 0.00 58 1011.3
20260509144549 58 359 1.0 3.0 0.00 0.00 0.00 56 1011.1
20260509143036 57 0 0.0 2.0 0.00 0.00 0.00 58 1010.9
20260509141538 56 326 0.0 2.0 0.00 0.00 0.00 64 1010.9
20260509140037 55 0 0.0 3.0 0.00 0.00 0.00 67 1010.7
20260509134553 53 22 1.0 3.0 0.00 0.00 0.00 66 1010.8
20260509133043 53 311 1.0 2.0 0.00 0.00 0.00 66 1010.9
20260509131537 53 340 1.0 2.0 0.00 0.00 0.00 66 1011.1
20260509130051 52 284 0.0 2.0 0.00 0.00 0.00 67 1010.9
20260509124537 51 0 0.0 2.0 0.00 0.00 0.00 68 1010.8
20260509123032 51 0 0.0 2.0 0.00 0.00 0.00 69 1010.9
20260509121544 50 190 1.0 3.0 0.00 0.00 0.00 69 1010.9
20260509120035 50 0 0.0 4.0 0.00 0.00 0.00 68 1011.1
20260509114538 50 0 0.0 1.0 0.00 0.00 0.00 70 1011.3
20260509113039 49 0 0.0 2.0 0.00 0.00 0.00 69 1011.2
20260509111545 49 0 0.0 1.0 0.00 0.00 0.00 69 1011.2
20260509110036 49 0 0.0 0.0 0.00 0.00 0.00 67 1011.2
20260509104543 49 0 0.0 0.0 0.00 0.00 0.00 67 1011.1
20260509103038 50 0 0.0 0.0 0.00 0.00 0.00 65 1010.9
20260509101606 50 0 0.0 2.0 0.00 0.00 0.00 65 1011.0
20260509100040 51 355 3.0 4.0 0.00 0.00 0.00 63 1011.0
20260509094539 52 139 1.0 4.0 0.00 0.00 0.00 56 1010.8
20260509093037 53 115 1.0 7.0 0.00 0.00 0.00 55 1010.8
20260509091541 53 157 1.0 7.0 0.00 0.00 0.00 55 1011.0
20260509090039 53 101 2.0 6.0 0.00 0.00 0.00 55 1011.1
20260509084537 53 107 2.0 7.0 0.00 0.00 0.00 55 1011.1
20260509083035 53 102 2.0 8.0 0.00 0.00 0.00 55 1011.1
20260509081541 53 133 3.0 7.0 0.00 0.00 0.00 54 1011.3
20260509080037 53 103 2.0 8.0 0.00 0.00 0.00 53 1011.3
20260509074543 53 129 2.0 8.0 0.00 0.00 0.00 53 1011.2
20260509073033 53 198 3.0 9.0 0.00 0.00 0.00 53 1011.3
20260509071532 53 122 4.0 8.0 0.00 0.00 0.00 54 1011.2
20260509070040 52 125 1.0 4.0 0.00 0.00 0.00 55 1011.4
20260509064542 52 112 2.0 5.0 0.00 0.00 0.00 53 1011.3
20260509063036 52 76 2.0 4.0 0.00 0.00 0.00 54 1011.5
20260509061535 53 117 1.0 4.0 0.00 0.00 0.00 54 1011.6
20260509060038 53 0 1.0 2.0 0.00 0.00 0.00 53 1011.7